Princeton, MN

9:16 PM CST on November 17, 2019 (GMT -0600)
Princeton Municipal

Weather History for KPNM - September, 2019

Change the Weather History Date:

Tuesday, September 24, 2019

  Actual Average Record
Temperature  
Mean Temperature 62 °F -  
Max Temperature 75 °F 65 °F 87 °F (2017)
Min Temperature 48 °F 41 °F 10 °F (1997)
Degree Days  
Heating Degree Days 4    
Growing Degree Days 12 (Base 50)    
Moisture  
Dew Point 57 °F    
Average Humidity 84    
Maximum Humidity 100    
Minimum Humidity 65    
Precipitation  
Precipitation 0.00 in - - ()
Sea Level Pressure  
Sea Level Pressure 29.70 in    
Wind  
Wind Speed 1 mph (SW)    
Max Wind Speed 8 mph    
Max Gust Speed -    
Visibility 10 miles    
Events      
Averages and records for this station are not official NWS values.
T = Trace of Precipitation, MM = Missing Value Source: NWS Daily Summary

Daily Weather History Graph

Daily Weather History Graph

Search for Another Location

Airport or City:

Astronomy

Sep. 24, 2019 Rise Set
Actual Time 7:03 AM CDT 7:08 PM CDT
Civil Twilight 6:34 AM CDT 7:38 PM CDT
Nautical Twilight 5:59 AM CDT 8:12 PM CDT
Astronomical Twilight 5:23 AM CDT 8:48 PM CDT
Moon 1:31 AM CDT (9/24) 5:11 PM CDT (9/24)
Length of Visible Light 13h 03m
Length of Day
12h 04m
Waning Crescent, 23% of the Moon is Illuminated
Sep 24
Waning Crescent
Sep 28
New
Oct 5
First Quarter
Oct 13
Full
Oct 21
Last Quarter

Hourly Weather History & Observations

Time (CDT) Temp. Dew Point Humidity Pressure Visibility Wind Dir Wind Speed Gust Speed Precip Events Conditions
12:16 AM 51.8 °F 50.0 °F 94% 29.90 in 10.0 mi Calm Calm - N/A   Clear
12:35 AM 51.8 °F 48.2 °F 88% 29.89 in 10.0 mi Calm Calm - N/A   Clear
12:36 AM 53.6 °F 48.2 °F 82% 29.89 in 10.0 mi Calm Calm - N/A   Clear
1:19 AM 51.8 °F 50.0 °F 94% 29.88 in 10.0 mi Calm Calm - N/A   Clear
1:37 AM 51.8 °F 48.2 °F 88% 29.88 in 10.0 mi Calm Calm - N/A   Clear
1:55 AM 51.8 °F 48.2 °F 88% 29.87 in 10.0 mi Calm Calm - N/A   Clear
1:56 AM 51.8 °F 48.2 °F 88% 29.87 in 10.0 mi Calm Calm - N/A   Clear
2:15 AM 53.6 °F 50.0 °F 88% 29.86 in 10.0 mi Calm Calm - N/A   Clear
2:16 AM 53.6 °F 50.0 °F 88% 29.86 in 10.0 mi Calm Calm - N/A   Clear
2:35 AM 51.8 °F 50.0 °F 94% 29.86 in 10.0 mi Calm Calm - N/A   Clear
2:58 AM 53.6 °F 51.8 °F 94% 29.85 in 10.0 mi Calm Calm - N/A   Clear
3:16 AM 55.4 °F 51.8 °F 88% 29.84 in 10.0 mi SE 3.5 mph - N/A   Clear
3:35 AM 53.6 °F 51.8 °F 94% 29.83 in 10.0 mi Calm Calm - N/A   Clear
3:36 AM 53.6 °F 51.8 °F 94% 29.83 in 10.0 mi Calm Calm - N/A   Clear
3:55 AM 53.6 °F 50.0 °F 88% 29.83 in 10.0 mi Calm Calm - N/A   Clear
3:56 AM 51.8 °F 50.0 °F 94% 29.83 in 10.0 mi Calm Calm - N/A   Clear
4:19 AM 51.8 °F 50.0 °F 94% 29.83 in 10.0 mi Calm Calm - N/A   Clear
4:37 AM 51.8 °F 50.0 °F 94% 29.82 in 10.0 mi Calm Calm - N/A   Clear
4:55 AM 51.8 °F 50.0 °F 94% 29.81 in 10.0 mi Calm Calm - N/A   Clear
5:15 AM 51.8 °F 50.0 °F 94% 29.80 in 7.0 mi Calm Calm - N/A   Clear
5:16 AM 51.8 °F 50.0 °F 94% 29.80 in 7.0 mi Calm Calm - N/A   Clear
5:35 AM 51.8 °F 51.8 °F 100% 29.80 in 10.0 mi Calm Calm - N/A   Clear
5:40 AM 51.8 °F 50.0 °F 94% 29.80 in 10.0 mi Calm Calm - N/A   Clear
5:58 AM 51.8 °F 51.8 °F 100% 29.80 in 10.0 mi Calm Calm - N/A   Clear
6:16 AM 51.8 °F 50.0 °F 94% 29.79 in 10.0 mi Calm Calm - N/A   Clear
6:35 AM 50.0 °F 48.2 °F 94% 29.79 in 10.0 mi Calm Calm - N/A   Clear
6:55 AM 50.0 °F 48.2 °F 94% 29.78 in 10.0 mi Calm Calm - N/A   Clear
6:56 AM 48.2 °F 48.2 °F 100% 29.78 in 10.0 mi Calm Calm - N/A   Clear
7:19 AM 48.2 °F 48.2 °F 100% 29.78 in 0.8 mi Calm Calm - N/A   Mist
7:37 AM 50.0 °F 48.2 °F 94% 29.78 in 1.2 mi Calm Calm - N/A   Clear
7:55 AM 51.8 °F 51.8 °F 100% 29.77 in 7.0 mi Calm Calm - N/A   Clear
8:15 AM 55.4 °F 53.6 °F 94% 29.75 in 10.0 mi ESE 3.5 mph - N/A   Clear
8:16 AM 55.4 °F 53.6 °F 94% 29.75 in 10.0 mi ESE 3.5 mph - N/A   Clear
8:35 AM 57.2 °F 57.2 °F 100% 29.75 in 10.0 mi SE 4.6 mph - N/A   Clear
8:58 AM 60.8 °F 57.2 °F 88% 29.74 in 10.0 mi SE 4.6 mph - N/A   Clear
9:16 AM 62.6 °F 59.0 °F 88% 29.74 in 10.0 mi SSE 3.5 mph - N/A   Clear
9:55 AM 66.2 °F 59.0 °F 78% 29.72 in 10.0 mi SSE 5.8 mph - N/A   Clear
9:56 AM 66.2 °F 59.0 °F 78% 29.72 in 10.0 mi South 5.8 mph - N/A   Clear
10:19 AM 66.2 °F 59.0 °F 78% 29.72 in 10.0 mi South 3.5 mph - N/A   Clear
10:37 AM 68.0 °F 60.8 °F 78% 29.71 in 10.0 mi SSW 4.6 mph - N/A   Clear
10:55 AM 69.8 °F 60.8 °F 73% 29.72 in 10.0 mi SSW 4.6 mph - N/A   Clear
10:56 AM 69.8 °F 60.8 °F 73% 29.72 in 10.0 mi SSW 4.6 mph - N/A   Clear
11:15 AM 71.6 °F 60.8 °F 69% 29.71 in 10.0 mi SSW 3.5 mph - N/A   Clear
11:16 AM 71.6 °F 60.8 °F 69% 29.71 in 10.0 mi South 4.6 mph - N/A   Clear
11:35 AM 69.8 °F 60.8 °F 73% 29.71 in 10.0 mi South 3.5 mph - N/A   Clear
11:58 AM 71.6 °F 60.8 °F 69% 29.69 in 10.0 mi SSW 5.8 mph - N/A   Clear
12:16 PM 73.4 °F 62.6 °F 69% 29.68 in 10.0 mi SSW 4.6 mph - N/A   Clear
12:35 PM 73.4 °F 62.6 °F 69% 29.69 in 10.0 mi South 4.6 mph - N/A   Clear
12:36 PM 73.4 °F 62.6 °F 69% 29.69 in 10.0 mi South 3.5 mph - N/A   Clear
12:55 PM 75.2 °F 62.6 °F 65% 29.68 in 10.0 mi SW 3.5 mph - N/A   Clear
1:19 PM 75.2 °F 62.6 °F 65% 29.66 in 10.0 mi SSE 5.8 mph - N/A   Clear
1:36 PM 75.2 °F 62.6 °F 65% 29.66 in 10.0 mi South 3.5 mph - N/A   Clear
1:55 PM 73.4 °F 62.6 °F 69% 29.66 in 10.0 mi SSW 4.6 mph - N/A   Clear
1:56 PM 73.4 °F 62.6 °F 69% 29.66 in 10.0 mi SSW 3.5 mph - N/A   Clear
2:15 PM 75.2 °F 62.6 °F 65% 29.65 in 10.0 mi SW 3.5 mph - N/A   Clear
2:39 PM 75.2 °F 62.6 °F 65% 29.64 in 10.0 mi Calm Calm - N/A   Clear
2:57 PM 73.4 °F 62.6 °F 69% 29.64 in 10.0 mi Calm Calm - N/A   Clear
3:15 PM 73.4 °F 62.6 °F 69% 29.62 in 10.0 mi Calm Calm - N/A   Clear
3:16 PM 73.4 °F 62.6 °F 69% 29.62 in 10.0 mi Calm Calm - N/A   Clear
3:35 PM 75.2 °F 64.4 °F 69% 29.60 in 10.0 mi Calm Calm - N/A   Clear
3:55 PM 73.4 °F 62.6 °F 69% 29.61 in 10.0 mi South 4.6 mph - N/A   Mostly Cloudy
4:18 PM 75.2 °F 64.4 °F 69% 29.60 in 10.0 mi Calm Calm - N/A   Mostly Cloudy
4:36 PM 75.2 °F 62.6 °F 65% 29.61 in 10.0 mi WSW 3.5 mph - N/A   Scattered Clouds
4:55 PM 73.4 °F 62.6 °F 69% 29.60 in 10.0 mi West 4.6 mph - N/A   Clear
5:15 PM 73.4 °F 64.4 °F 73% 29.60 in 10.0 mi WNW 3.5 mph - N/A   Scattered Clouds
5:16 PM 73.4 °F 64.4 °F 73% 29.60 in 10.0 mi NW 3.5 mph - N/A   Scattered Clouds
5:39 PM 73.4 °F 62.6 °F 69% 29.58 in 10.0 mi Calm Calm - N/A   Scattered Clouds
5:57 PM 73.4 °F 64.4 °F 73% 29.58 in 10.0 mi Calm Calm - N/A   Clear
6:15 PM 71.6 °F 64.4 °F 78% 29.56 in 10.0 mi Calm Calm - N/A   Scattered Clouds
6:35 PM 71.6 °F 64.4 °F 78% 29.56 in 10.0 mi Calm Calm - N/A   Scattered Clouds
6:55 PM 69.8 °F 64.4 °F 83% 29.55 in 10.0 mi NW 4.6 mph - N/A   Scattered Clouds
7:00 PM 69.8 °F 64.4 °F 83% 29.55 in 10.0 mi WNW 5.8 mph - N/A   Scattered Clouds
7:18 PM 68.0 °F 62.6 °F 83% 29.55 in 10.0 mi NW 4.6 mph - N/A   Clear
7:36 PM 66.2 °F 62.6 °F 88% 29.54 in 10.0 mi Calm Calm - N/A   Clear
7:55 PM 64.4 °F 62.6 °F 94% 29.53 in 10.0 mi WNW 4.6 mph - N/A   Clear
8:15 PM 64.4 °F 62.6 °F 94% 29.53 in 10.0 mi WNW 6.9 mph - N/A   Clear
8:16 PM 64.4 °F 62.6 °F 94% 29.53 in 10.0 mi WNW 6.9 mph - N/A   Clear
8:39 PM 64.4 °F 60.8 °F 88% 29.54 in 10.0 mi West 8.1 mph - N/A   Clear
8:57 PM 64.4 °F 60.8 °F 88% 29.55 in 10.0 mi West 5.8 mph - N/A   Clear
9:15 PM 62.6 °F 59.0 °F 88% 29.56 in 10.0 mi West 4.6 mph - N/A   Clear
9:35 PM 62.6 °F 57.2 °F 82% 29.57 in 10.0 mi West 4.6 mph - N/A   Clear
9:36 PM 62.6 °F 57.2 °F 82% 29.57 in 10.0 mi West 4.6 mph - N/A   Clear
9:55 PM 62.6 °F 57.2 °F 82% 29.56 in 10.0 mi Calm Calm - N/A   Clear
10:00 PM 60.8 °F 57.2 °F 88% 29.56 in 10.0 mi Calm Calm - N/A   Clear
10:18 PM 60.8 °F 57.2 °F 88% 29.56 in 10.0 mi Calm Calm - N/A   Clear
10:36 PM 57.2 °F 55.4 °F 94% 29.56 in 10.0 mi Calm Calm - N/A   Clear
10:55 PM 57.2 °F 55.4 °F 94% 29.56 in 10.0 mi Calm Calm - N/A   Clear
10:56 PM 55.4 °F 55.4 °F 100% 29.56 in 10.0 mi Calm Calm - N/A   Clear
11:39 PM 60.8 °F 57.2 °F 88% 29.57 in 10.0 mi Calm Calm - N/A   Mostly Cloudy
11:57 PM 60.8 °F 57.2 °F 88% 29.57 in 10.0 mi Calm Calm - N/A   Mostly Cloudy